Location: Peterborough
(44.3091°N, 78.3197°W)
Time: 07:24:16
(UTC-04:00)

Vanguard 3 - Pass Details

Date: 30 March 2023
Orbit: 507 x 3246 km, 33.4° (Epoch: 04 June)

Event Time Altitude Azimuth Distance (km) Brightness Sun altitude
Rises 06:55:56 0° 271° (W) 7,067 - -1.3°
Exits shadow 06:56:21 - 271° (W) 6,988 11.2 -1.2°
Reaches altitude 10° 07:00:45 10° 267° (W) 6,151 11.0 -0.4°
Maximum altitude 07:19:19 51° 200° (SSW) 3,514 10.3 2.9°
Drops below altitude 10° 07:33:36 10° 130° (SE) 4,832 12.0 5.5°
Sets 07:36:53 0° 125° (SE) 5,517 12.4 6.0°
